Location: Newark
(7.0858°N, 171.3717°E)
Time: 07:33:06
(UTC+00:00)

S-56A Canister/Altair - Pass Details

Date: 30 November 2020
Orbit: 633 x 2499 km, 38.9° (Epoch: 27 January)

Event Time Altitude Azimuth Distance (km) Brightness Sun altitude
Rises 06:45:29 0° 257° (WSW) 6,147 14.4 -7.7°
Reaches altitude 10° 06:50:27 10° 267° (W) 5,033 13.1 -8.9°
Maximum altitude 07:02:02 30° 322° (NW) 3,180 10.8 -11.6°
Drops below altitude 10° 07:11:07 10° 20° (NNE) 3,885 10.7 -13.7°
Enters shadow 07:13:07 - 27° (NNE) 4,295 10.9 -14.2°
Sets 07:14:26 0° 31° (NNE) 4,595 - -14.5°
